THOR AGENA B DEB, 511

Orbit data source: Space-Track

THOR AGENA B DEB, 511 is space debris in LEO originally from a launch on Sat, 29 Sep 1962 UTC launched from the Air Force Western Test Range (AFWTR). Debris objects in space refer to the collection of defunct objects orbiting the Earth. Examples of debris include non-operational satellites, rocket bodies, and fragments generated from explosions, collisions, or faulty payload assembly.

Loading next visibility...
Identifier
511, 1962-049D
Orbit
LEO
Country
Flag of USUS
Related business
Manufacturer
Unknown
Mission
Spacecraft
Bus & Motor
Unknown
Mass
Unknown
Launch date (UTC)
1962-09-29 (63 years ago)
Launch vehicle
Unknown
Launch site
Air Force Western Test Range (AFWTR)
Object type
Payload
Rocket body
Debris
Shape & HBR
Unknown
Radar Cross Section
Small (<0.1 m²)

Expand to show TLE details & history
Last TLE update: 1 day ago

TLE from 1 day ago
0 THOR AGENA B DEB
1 00511U 62049D   25242.09241581  .00000077  00000-0  79577-4 0  9996
2 00511  80.4273 120.6153 0031943   6.9481 148.2005 13.68519448139764
Epoch: 2025-08-30T02:13Z
TLE epoch observation values (Epoch: 2025-08-30T02:13:04.725Z)
Latitude
24.31908°
Longitude
-75.53448°
Altitude
1,027.813 km
Speed
7.33 km/s
True Right ascension
19h 45m 04s
True Declination
24° 11' 42"
Sunlit
Object was in full shadow at epoch
Visualization orbit readout
Latitude
Unknown
Longitude
Unknown
Altitude
Unknown
Speed
Unknown
Apparent Right ascension
Unknown
Apparent Declination
Unknown
Sunlit
N/A
Visualization observer readout
Local Sidereal Time
20:07:21
Azimuth
Unknown
Elevation
Unknown
Doppler factor
Unknown
Orbital elements
Apogee altitude
1,025.736 km
Perigee altitude
978.586 km
Semi-major axis
7,380.298 km
Eccentricity
0.00319
Inclination
80.4273°
RAAN
120.6153°
Arg. of periapsis
6.9481°
True anomaly
148.39273°
Mean anomaly
148.2005°
Eccentric anomaly
148.29668°
Mean motion
3.4232 °/min
Orbital period
105.16 mins
BSTAR
0.000079577
Loading maneuver chart data...
Computing Atmospheric mass density...
Loading historical data...
Loading historical data...
Loading historical data...
Loading historical data...
Loading historical data...
Loading historical data...
Loading historical data...
Other satellites on launch #49 in the year 1962 (1962-09-29 UTC)

Documentation

Showing up to 5 results
|